GW4079 Weather Reports


Display with metric or nautical units.
time (UTC)temp
F
wind
direction
speed
MPH
gust
MPH
rain 1hr
in
rain 24hr
in
rain mn
in
humidity
%
barometer
mb
20260508051605 51 309 2.0 4.0 0.00 0.00 0.00 59 1013.2
20260508050057 52 332 2.0 4.0 0.00 0.00 0.00 57 1013.0
20260508044544 54 313 5.0 8.0 0.00 0.00 0.00 54 1013.1
20260508043051 55 306 4.0 9.0 0.00 0.00 0.00 52 1013.3
20260508041609 56 302 5.0 9.0 0.00 0.00 0.00 51 1013.1
20260508040310 57 310 6.0 9.0 0.00 0.00 0.00 49 1013.1
20260508034546 58 323 9.0 13.0 0.00 0.00 0.00 48 1013.1
20260508033326 58 311 12.0 15.0 0.00 0.00 0.00 49 1013.1
20260508031527 53 338 5.0 8.0 0.00 0.00 0.00 54 1012.8
20260508030051 53 338 3.0 4.0 0.00 0.00 0.00 53 1012.6
20260508024603 54 319 2.0 4.0 0.00 0.00 0.00 51 1012.7
20260508023054 57 319 2.0 4.0 0.00 0.00 0.00 49 1012.2
20260508021621 59 319 3.0 4.0 0.00 0.00 0.00 46 1012.2
20260508020335 62 319 3.0 6.0 0.00 0.00 0.00 43 1011.9
20260508014547 64 306 6.0 12.0 0.00 0.00 0.00 41 1012.0
20260508013054 64 283 9.0 14.0 0.00 0.00 0.00 41 1011.6
20260508011559 64 311 14.0 18.0 0.00 0.00 0.00 43 1011.6
20260508010130 65 319 12.0 17.0 0.00 0.00 0.00 41 1011.6
20260508004559 64 291 8.0 12.0 0.00 0.00 0.00 36 1011.8
20260508003102 63 334 9.0 38.0 0.00 0.00 0.00 40 1011.9
20260508001604 67 36 13.0 16.0 0.00 0.00 0.00 29 1011.6
20260507234600 68 313 9.0 16.0 0.00 0.00 0.00 30 1011.6
20260507233052 68 301 14.0 21.0 0.00 0.00 0.00 30 1011.4
20260507231557 67 337 12.0 25.0 0.00 0.00 0.00 30 1011.6
20260507230114 68 9 10.0 14.0 0.00 0.00 0.00 30 1011.6
20260507224555 67 34 11.0 16.0 0.00 0.00 0.00 30 1011.6
20260507223132 69 34 12.0 16.0 0.00 0.00 0.00 28 1011.5
20260507221546 67 30 9.0 18.0 0.00 0.00 0.00 32 1011.8
20260507220047 69 31 13.0 19.0 0.00 0.00 0.00 29 1011.7
20260507214557 69 352 16.0 27.0 0.00 0.00 0.00 26 1011.5
20260507213107 69 342 14.0 21.0 0.00 0.00 0.00 26 1011.9
20260507211555 67 21 7.0 16.0 0.00 0.00 0.00 30 1012.2
20260507210046 67 341 12.0 18.0 0.00 0.00 0.00 31 1012.3
20260507204849 66 314 14.0 25.0 0.00 0.00 0.00 31 1012.3
20260507203045 63 42 9.0 22.0 0.00 0.00 0.00 41 1012.4
20260507201602 66 330 12.0 16.0 0.00 0.00 0.00 32 1012.3
20260507200103 67 323 11.0 20.0 0.00 0.00 0.00 31 1011.9
20260507194549 68 328 12.0 21.0 0.00 0.00 0.00 30 1011.9
20260507193045 66 345 11.0 15.0 0.00 0.00 0.00 33 1012.1
20260507191548 65 350 10.0 17.0 0.00 0.00 0.00 33 1012.2
20260507190054 65 5 12.0 17.0 0.00 0.00 0.00 34 1012.1
20260507184546 67 10 12.0 18.0 0.00 0.00 0.00 31 1012.1
20260507183042 66 18 11.0 17.0 0.00 0.00 0.00 35 1012.3
20260507181539 66 5 11.0 17.0 0.00 0.00 0.00 33 1012.3
20260507180035 66 11 15.0 20.0 0.00 0.00 0.00 35 1012.7
20260507174554 65 13 14.0 25.0 0.00 0.00 0.00 36 1012.7
20260507173044 65 348 14.0 21.0 0.00 0.00 0.00 36 1012.7
20260507171547 65 22 15.0 23.0 0.00 0.00 0.00 37 1012.9
20260507170051 65 26 11.0 18.0 0.00 0.00 0.00 38 1013.0
20260507164547 64 24 9.0 19.0 0.00 0.00 0.00 38 1012.7
20260507163046 62 22 10.0 16.0 0.00 0.00 0.00 40 1012.9
20260507161611 63 38 6.0 12.0 0.00 0.00 0.00 40 1012.8
20260507160117 61 300 3.0 8.0 0.00 0.00 0.00 43 1013.0
20260507154559 57 248 4.0 7.0 0.00 0.00 0.00 46 1012.8
20260507153115 55 239 3.0 8.0 0.00 0.00 0.00 49 1013.1
20260507151558 54 199 4.0 7.0 0.00 0.00 0.00 49 1013.1
20260507150107 52 22 0.0 4.0 0.00 0.00 0.00 51 1012.8
20260507144552 51 42 4.0 7.0 0.00 0.00 0.00 52 1013.1
20260507143101 50 65 5.0 8.0 0.00 0.00 0.00 52 1013.1
20260507141558 51 58 7.0 13.0 0.00 0.00 0.00 52 1012.9
20260507140057 51 46 4.0 13.0 0.00 0.00 0.00 53 1012.7
20260507134600 51 360 7.0 9.0 0.00 0.00 0.00 53 1012.6
20260507133103 49 360 7.0 10.0 0.00 0.00 0.00 55 1012.3
20260507131604 47 349 4.0 11.0 0.00 0.00 0.00 54 1012.2
20260507130330 43 28 2.0 6.0 0.00 0.00 0.00 54 1012.2
20260507124557 43 10 5.0 8.0 0.00 0.00 0.00 54 1011.9
20260507123105 42 360 3.0 8.0 0.00 0.00 0.00 57 1011.6
20260507121558 41 34 0.0 4.0 0.00 0.00 0.00 57 1011.5
20260507120045 42 34 3.0 6.0 0.00 0.00 0.00 57 1011.4
20260507114552 43 350 0.0 2.0 0.00 0.00 0.00 56 1011.2
20260507113047 42 350 2.0 5.0 0.00 0.00 0.00 57 1011.1
20260507111546 41 343 0.0 4.0 0.00 0.00 0.00 59 1011.1
20260507110053 43 343 0.0 4.0 0.00 0.00 0.00 55 1011.1
20260507104554 42 269 3.0 6.0 0.00 0.00 0.00 56 1011.1
20260507103047 43 247 4.0 5.0 0.00 0.00 0.00 55 1011.0
20260507101556 41 26 1.0 6.0 0.00 0.00 0.00 61 1011.3
20260507100113 41 44 0.0 4.0 0.00 0.00 0.00 63 1010.2
20260507094559 40 49 3.0 5.0 0.00 0.00 0.00 65 1010.4
20260507093039 41 49 3.0 5.0 0.00 0.00 0.00 65 1010.7
20260507091548 42 40 4.0 7.0 0.00 0.00 0.00 62 1010.4
20260507090039 42 42 5.0 7.0 0.00 0.00 0.00 59 1010.3
20260507084548 41 45 4.0 6.0 0.00 0.00 0.00 62 1010.0
20260507083103 42 59 3.0 5.0 0.00 0.00 0.00 61 1009.8
20260507081557 43 72 6.0 10.0 0.00 0.00 0.00 62 1009.9
20260507080054 41 65 6.0 9.0 0.00 0.00 0.00 65 1009.8
20260507074608 44 46 5.0 9.0 0.00 0.00 0.00 60 1009.9
20260507073053 45 78 0.0 3.0 0.00 0.00 0.00 63 1009.6
20260507071545 46 202 3.0 6.0 0.00 0.00 0.00 61 1009.6
20260507070051 47 111 6.0 9.0 0.00 0.00 0.00 59 1009.4
20260507064550 48 80 5.0 9.0 0.00 0.00 0.00 58 1009.5
20260507063050 50 92 8.0 13.0 0.00 0.00 0.00 56 1009.4
20260507061610 53 84 12.0 17.0 0.00 0.00 0.00 49 1009.7
20260507060058 55 84 12.0 16.0 0.00 0.00 0.00 38 1009.2
20260507054556 56 109 7.0 12.0 0.00 0.00 0.00 33 1008.8
20260507053059 56 117 14.0 18.0 0.00 0.00 0.00 30 1008.1